Terug naar catalogus

THORAD AGENA D DEB

ActiefLEO
NORAD 5026·DEBRIS·🇺🇸 United States

Gelanceerd Apr 8, 1970 vanaf Vandenberg Space Force Base

Loading…

Volgende Passages (komende 24 uur)

TLE

VersSource: Space-Track

Epoch: Sep 14, 2026, 06:02 UTC

1 05026U 70025JA  26257.25177622  .00001046  00000-0  10915-2 0  9990
2 05026 100.1802 171.6407 0030483 214.8952 297.3048 13.77836176796859

Volg THORAD AGENA D DEB in realtime met AllMySat

Download on the App Store